Location: Sternwarte-Kraichtal
(49.1689°N, 8.6996°E)
Time: 20:16:56
(UTC+02:00)

Vanguard 2 Rocket - Pass Details

Date: 28 May 2022
Orbit: 553 x 3323 km, 32.9° (Epoch: 02 July)

Event Time Altitude Azimuth Distance (km) Brightness Sun altitude
Rises 12:01:13 0° 199° (SSW) 7,075 11.7 58.0°
Reaches altitude 10° 12:07:33 10° 187° (S) 6,228 11.6 58.6°
Maximum altitude 12:20:58 23° 145° (SE) 5,135 11.7 59.7°
Drops below altitude 10° 12:33:02 10° 102° (ESE) 5,606 11.3 60.6°
Sets 12:38:10 0° 90° (E) 6,242 11.3 61.0°
